#Datum;Uhrzeit;WR;Pac;DaySum;Status;WR;Pac;DaySum;Status;Pdc1;Udc;Temp;WR;Pac;DaySum;Status;Pdc1;Udc;Temp;WR;Pac;DaySum;Status;Pdc1;Udc;Temp;WR;Pac;DaySum;Status;Pdc1;Pdc2;Udc1;Udc2;Temp;WR;Pac;DaySum;Status;Pdc1;Pdc2;Udc1;Udc2;Temp;WR;Pac;DaySum;Status;Pdc1;Udc;Temp;WR;Pac;DaySum;Status;Pdc1;Udc;Temp;WR;Pac;DaySum;Status;Pdc1;Udc;Temp
17.01.20;23:55:00;1;501;17949;0;2;0;14163;0;0;0;0;3;0;9398;0;0;0;0;4;0;10411;0;0;0;0;5;0;34683;0;0;0;0;0;0;6;0;26451;0;0;0;0;0;0;7;0;25043;0;0;0;0;8;0;24396;0;0;0;0;9;0;12951;0;0;0;0
17.01.20;23:50:00;1;532;17906;0;2;0;14163;0;0;0;0;3;0;9398;0;0;0;0;4;0;10411;0;0;0;0;5;0;34683;0;0;0;0;0;0;6;0;26451;0;0;0;0;0;0;7;0;25043;0;0;0;0;8;0;24396;0;0;0;0;9;0;12951;0;0;0;0
17.01.20;23:45:00;1;805;17863;0;2;0;14163;0;0;0;0;3;0;9398;0;0;0;0;4;0;10411;0;0;0;0;5;0;34683;0;0;0;0;0;0;6;0;26451;0;0;0;0;0;0;7;0;25043;0;0;0;0;8;0;24396;0;0;0;0;9;0;12951;0;0;0;0
17.01.20;23:40:00;1;515;17796;0;2;0;14163;0;0;0;0;3;0;9398;0;0;0;0;4;0;10411;0;0;0;0;5;0;34683;0;0;0;0;0;0;6;0;26451;0;0;0;0;0;0;7;0;25043;0;0;0;0;8;0;24396;0;0;0;0;9;0;12951;0;0;0;0
17.01.20;23:35:00;1;567;17753;0;2;0;14163;0;0;0;0;3;0;9398;0;0;0;0;4;0;10411;0;0;0;0;5;0;34683;0;0;0;0;0;0;6;0;26451;0;0;0;0;0;0;7;0;25043;0;0;0;0;8;0;24396;0;0;0;0;9;0;12951;0;0;0;0
17.01.20;23:30:00;1;887;17706;0;2;0;14163;0;0;0;0;3;0;9398;0;0;0;0;4;0;10411;0;0;0;0;5;0;34683;0;0;0;0;0;0;6;0;26451;0;0;0;0;0;0;7;0;25043;0;0;0;0;8;0;24396;0;0;0;0;9;0;12951;0;0;0;0
17.01.20;23:25:00;1;584;17637;0;2;0;14163;0;0;0;0;3;0;9398;0;0;0;0;4;0;10411;0;0;0;0;5;0;34683;0;0;0;0;0;0;6;0;26451;0;0;0;0;0;0;7;0;25043;0;0;0;0;8;0;24396;0;0;0;0;9;0;12951;0;0;0;0
17.01.20;23:20:00;1;529;17587;0;2;0;14163;0;0;0;0;3;0;9398;0;0;0;0;4;0;10411;0;0;0;0;5;0;34683;0;0;0;0;0;0;6;0;26451;0;0;0;0;0;0;7;0;25043;0;0;0;0;8;0;24396;0;0;0;0;9;0;12951;0;0;0;0
17.01.20;23:15:00;1;867;17543;0;2;0;14163;0;0;0;0;3;0;9398;0;0;0;0;4;0;10411;0;0;0;0;5;0;34683;0;0;0;0;0;0;6;0;26451;0;0;0;0;0;0;7;0;25043;0;0;0;0;8;0;24396;0;0;0;0;9;0;12951;0;0;0;0
17.01.20;23:10:00;1;512;17476;0;2;0;14163;0;0;0;0;3;0;9398;0;0;0;0;4;0;10411;0;0;0;0;5;0;34683;0;0;0;0;0;0;6;0;26451;0;0;0;0;0;0;7;0;25043;0;0;0;0;8;0;24396;0;0;0;0;9;0;12951;0;0;0;0
17.01.20;23:05:00;1;541;17433;0;2;0;14163;0;0;0;0;3;0;9398;0;0;0;0;4;0;10411;0;0;0;0;5;0;34683;0;0;0;0;0;0;6;0;26451;0;0;0;0;0;0;7;0;25043;0;0;0;0;8;0;24396;0;0;0;0;9;0;12951;0;0;0;0
17.01.20;23:00:00;1;863;17387;0;2;0;14163;0;0;0;0;3;0;9398;0;0;0;0;4;0;10411;0;0;0;0;5;0;34683;0;0;0;0;0;0;6;0;26451;0;0;0;0;0;0;7;0;25043;0;0;0;0;8;0;24396;0;0;0;0;9;0;12951;0;0;0;0
17.01.20;22:55:00;1;504;17319;0;2;0;14163;0;0;0;0;3;0;9398;0;0;0;0;4;0;10411;0;0;0;0;5;0;34683;2;0;0;0;0;0;6;0;26451;2;0;0;0;0;0;7;0;25043;0;0;0;0;8;0;24396;0;0;0;0;9;0;12951;0;0;0;0
17.01.20;22:50:00;1;510;17276;0;2;0;14163;0;0;0;0;3;0;9398;0;0;0;0;4;0;10411;0;0;0;0;5;0;34683;2;0;0;0;0;0;6;0;26451;2;0;0;0;0;0;7;0;25043;0;0;0;0;8;0;24396;0;0;0;0;9;0;12951;0;0;0;0
17.01.20;22:45:00;1;648;17234;0;2;0;14163;0;0;0;0;3;0;9398;0;0;0;0;4;0;10411;0;0;0;0;5;0;34683;2;0;0;0;0;0;6;0;26451;2;0;0;0;0;0;7;0;25043;0;0;0;0;8;0;24396;0;0;0;0;9;0;12951;0;0;0;0
17.01.20;22:40:00;1;616;17159;0;2;0;14163;0;0;0;0;3;0;9398;0;0;0;0;4;0;10411;0;0;0;0;5;0;34683;2;0;0;0;0;0;6;0;26451;2;0;0;0;0;0;7;0;25043;0;0;0;0;8;0;24396;0;0;0;0;9;0;12951;0;0;0;0
17.01.20;22:35:00;1;559;17108;0;2;0;14163;0;0;0;0;3;0;9398;0;0;0;0;4;0;10411;0;0;0;0;5;0;34683;2;0;0;0;0;0;6;0;26451;2;0;0;0;0;0;7;0;25043;0;0;0;0;8;0;24396;0;0;0;0;9;0;12951;0;0;0;0
17.01.20;22:30:00;1;583;17061;0;2;0;14163;0;0;0;0;3;0;9398;0;0;0;0;4;0;10411;0;0;0;0;5;0;34683;2;0;0;0;0;0;6;0;26451;2;0;0;0;0;0;7;0;25043;0;0;0;0;8;0;24396;0;0;0;0;9;0;12951;0;0;0;0
17.01.20;22:25:00;1;3411;17003;0;2;0;14163;0;0;0;0;3;0;9398;0;0;0;0;4;0;10411;0;0;0;0;5;0;34683;2;0;0;0;0;0;6;0;26451;2;0;0;0;0;0;7;0;25043;0;0;0;0;8;0;24396;0;0;0;0;9;0;12951;0;0;0;0
17.01.20;22:20:00;1;1468;16716;0;2;0;14163;0;0;0;0;3;0;9398;0;0;0;0;4;0;10411;0;0;0;0;5;0;34683;2;0;0;0;0;0;6;0;26451;2;0;0;0;0;0;7;0;25043;0;0;0;0;8;0;24396;0;0;0;0;9;0;12951;0;0;0;0
17.01.20;22:15:00;1;621;16662;0;2;0;14163;0;0;0;0;3;0;9398;0;0;0;0;4;0;10411;0;0;0;0;5;0;34683;2;0;0;0;0;0;6;0;26451;2;0;0;0;0;0;7;0;25043;0;0;0;0;8;0;24396;0;0;0;0;9;0;12951;0;0;0;0
17.01.20;22:10:00;1;911;16610;0;2;0;14163;0;0;0;0;3;0;9398;0;0;0;0;4;0;10411;0;0;0;0;5;0;34683;2;0;0;0;0;0;6;0;26451;2;0;0;0;0;0;7;0;25043;0;0;0;0;8;0;24396;0;0;0;0;9;0;12951;0;0;0;0
17.01.20;22:05:00;1;562;16537;0;2;0;14163;0;0;0;0;3;0;9398;0;0;0;0;4;0;10411;0;0;0;0;5;0;34683;2;0;0;0;0;0;6;0;26451;2;0;0;0;0;0;7;0;25043;0;0;0;0;8;0;24396;0;0;0;0;9;0;12951;0;0;0;0
17.01.20;22:00:00;1;608;16490;0;2;0;14163;0;0;0;0;3;0;9398;0;0;0;0;4;0;10411;0;0;0;0;5;0;34683;2;0;0;0;0;0;6;0;26451;2;0;0;0;0;0;7;0;25043;0;0;0;0;8;0;24396;0;0;0;0;9;0;12951;0;0;0;0
17.01.20;21:55:00;1;999;16439;0;2;0;14163;0;0;0;0;3;0;9398;0;0;0;0;4;0;10411;0;0;0;0;5;0;34683;2;0;0;0;0;0;6;0;26451;2;0;0;0;0;0;7;0;25043;0;0;0;0;8;0;24396;0;0;0;0;9;0;12951;0;0;0;0
17.01.20;21:50:00;1;797;16359;0;2;0;14163;0;0;0;0;3;0;9398;0;0;0;0;4;0;10411;0;0;0;0;5;0;34683;2;0;0;0;0;0;6;0;26451;2;0;0;0;0;0;7;0;25043;0;0;0;0;8;0;24396;0;0;0;0;9;0;12951;0;0;0;0
17.01.20;21:45:00;1;796;16293;0;2;0;14163;0;0;0;0;3;0;9398;0;0;0;0;4;0;10411;0;0;0;0;5;0;34683;2;0;0;0;0;0;6;0;26451;2;0;0;0;0;0;7;0;25043;0;0;0;0;8;0;24396;0;0;0;0;9;0;12951;0;0;0;0
17.01.20;21:40:00;1;1484;16226;0;2;0;14163;0;0;0;0;3;0;9398;0;0;0;0;4;0;10411;0;0;0;0;5;0;34683;2;0;0;0;0;0;6;0;26451;2;0;0;0;0;0;7;0;25043;0;0;0;0;8;0;24396;0;0;0;0;9;0;12951;0;0;0;0
17.01.20;21:35:00;1;806;16135;0;2;0;14163;0;0;0;0;3;0;9398;0;0;0;0;4;0;10411;0;0;0;0;5;0;34683;2;0;0;0;0;0;6;0;26451;2;0;0;0;0;0;7;0;25043;0;0;0;0;8;0;24396;0;0;0;0;9;0;12951;0;0;0;0
17.01.20;21:30:00;1;798;16068;0;2;0;14163;0;0;0;0;3;0;9398;0;0;0;0;4;0;10411;0;0;0;0;5;0;34683;2;0;0;0;0;0;6;0;26451;2;0;0;0;0;0;7;0;25043;0;0;0;0;8;0;24396;0;0;0;0;9;0;12951;0;0;0;0
17.01.20;21:25:00;1;1392;16001;0;2;0;14163;0;0;0;0;3;0;9398;0;0;0;0;4;0;10411;0;0;0;0;5;0;34683;2;0;0;0;0;0;6;0;26451;2;0;0;0;0;0;7;0;25043;0;0;0;0;8;0;24396;0;0;0;0;9;0;12951;0;0;0;0
17.01.20;21:20:00;1;832;15910;0;2;0;14163;0;0;0;0;3;0;9398;0;0;0;0;4;0;10411;0;0;0;0;5;0;34683;2;0;0;0;0;0;6;0;26451;2;0;0;0;0;0;7;0;25043;0;0;0;0;8;0;24396;0;0;0;0;9;0;12951;0;0;0;0
17.01.20;21:15:00;1;881;15839;0;2;0;14163;0;0;0;0;3;0;9398;0;0;0;0;4;0;10411;0;0;0;0;5;0;34683;2;0;0;0;0;0;6;0;26451;2;0;0;0;0;0;7;0;25043;0;0;0;0;8;0;24396;0;0;0;0;9;0;12951;0;0;0;0
17.01.20;21:10:00;1;1218;15768;0;2;0;14163;0;0;0;0;3;0;9398;0;0;0;0;4;0;10411;0;0;0;0;5;0;34683;2;0;0;0;0;0;6;0;26451;2;0;0;0;0;0;7;0;25043;0;0;0;0;8;0;24396;0;0;0;0;9;0;12951;0;0;0;0
17.01.20;21:05:00;1;858;15675;0;2;0;14163;0;0;0;0;3;0;9398;0;0;0;0;4;0;10411;0;0;0;0;5;0;34683;2;0;0;0;0;0;6;0;26451;2;0;0;0;0;0;7;0;25043;0;0;0;0;8;0;24396;0;0;0;0;9;0;12951;0;0;0;0
17.01.20;21:00:00;1;815;15605;0;2;0;14163;0;0;0;0;3;0;9398;0;0;0;0;4;0;10411;0;0;0;0;5;0;34683;2;0;0;0;0;0;6;0;26451;2;0;0;0;0;0;7;0;25043;0;0;0;0;8;0;24396;0;0;0;0;9;0;12951;0;0;0;0
17.01.20;20:55:00;1;1178;15536;0;2;0;14163;0;0;0;0;3;0;9398;0;0;0;0;4;0;10411;0;0;0;0;5;0;34683;2;0;0;0;0;0;6;0;26451;2;0;0;0;0;0;7;0;25043;0;0;0;0;8;0;24396;0;0;0;0;9;0;12951;0;0;0;0
17.01.20;20:50:00;1;807;15440;0;2;0;14163;0;0;0;0;3;0;9398;0;0;0;0;4;0;10411;0;0;0;0;5;0;34683;2;0;0;0;0;0;6;0;26451;2;0;0;0;0;0;7;0;25043;0;0;0;0;8;0;24396;0;0;0;0;9;0;12951;0;0;0;0
17.01.20;20:45:00;1;878;15372;0;2;0;14163;0;0;0;0;3;0;9398;0;0;0;0;4;0;10411;0;0;0;0;5;0;34683;2;0;0;0;0;0;6;0;26451;2;0;0;0;0;0;7;0;25043;0;0;0;0;8;0;24396;0;0;0;0;9;0;12951;0;0;0;0
17.01.20;20:40:00;1;936;15299;0;2;0;14163;0;0;0;0;3;0;9398;0;0;0;0;4;0;10411;0;0;0;0;5;0;34683;2;0;0;0;0;0;6;0;26451;2;0;0;0;0;0;7;0;25043;0;0;0;0;8;0;24396;0;0;0;0;9;0;12951;0;0;0;0
17.01.20;20:35:00;1;1261;15224;0;2;0;14163;0;0;0;0;3;0;9398;0;0;0;0;4;0;10411;0;0;0;0;5;0;34683;2;0;0;0;0;0;6;0;26451;2;0;0;0;0;0;7;0;25043;0;0;0;0;8;0;24396;0;0;0;0;9;0;12951;0;0;0;0
17.01.20;20:30:00;1;929;15103;0;2;0;14163;0;0;0;0;3;0;9398;0;0;0;0;4;0;10411;0;0;0;0;5;0;34683;2;0;0;0;0;0;6;0;26451;2;0;0;0;0;0;7;0;25043;0;0;0;0;8;0;24396;0;0;0;0;9;0;12951;0;0;0;0
17.01.20;20:25:00;1;943;15023;0;2;0;14163;0;0;0;0;3;0;9398;0;0;0;0;4;0;10411;0;0;0;0;5;0;34683;2;0;0;0;0;0;6;0;26451;2;0;0;0;0;0;7;0;25043;0;0;0;0;8;0;24396;0;0;0;0;9;0;12951;0;0;0;0
17.01.20;20:20:00;1;3356;14943;0;2;0;14163;0;0;0;0;3;0;9398;0;0;0;0;4;0;10411;0;0;0;0;5;0;34683;2;0;0;0;0;0;6;0;26451;2;0;0;0;0;0;7;0;25043;0;0;0;0;8;0;24396;0;0;0;0;9;0;12951;0;0;0;0
17.01.20;20:15:00;1;1343;14596;0;2;0;14163;0;0;0;0;3;0;9398;0;0;0;0;4;0;10411;0;0;0;0;5;0;34683;2;0;0;0;0;0;6;0;26451;2;0;0;0;0;0;7;0;25043;0;0;0;0;8;0;24396;0;0;0;0;9;0;12951;0;0;0;0
17.01.20;20:10:00;1;1328;14484;0;2;0;14163;0;0;0;0;3;0;9398;0;0;0;0;4;0;10411;0;0;0;0;5;0;34683;2;0;0;0;0;0;6;0;26451;2;0;0;0;0;0;7;0;25043;0;0;0;0;8;0;24396;0;0;0;0;9;0;12951;0;0;0;0
17.01.20;20:05:00;1;1944;14375;0;2;0;14163;0;0;0;0;3;0;9398;0;0;0;0;4;0;10411;0;0;0;0;5;0;34683;2;0;0;0;0;0;6;0;26451;2;0;0;0;0;0;7;0;25043;0;0;0;0;8;0;24396;0;0;0;0;9;0;12951;0;0;0;0
17.01.20;20:00:00;1;1284;14241;0;2;0;14163;0;0;0;0;3;0;9398;0;0;0;0;4;0;10411;0;0;0;0;5;0;34683;2;0;0;0;0;0;6;0;26451;2;0;0;0;0;0;7;0;25043;0;0;0;0;8;0;24396;0;0;0;0;9;0;12951;0;0;0;0
17.01.20;19:55:00;1;1278;14134;0;2;0;14163;0;0;0;0;3;0;9398;0;0;0;0;4;0;10411;0;0;0;0;5;0;34683;2;0;0;0;0;0;6;0;26451;2;0;0;0;0;0;7;0;25043;0;0;0;0;8;0;24396;0;0;0;0;9;0;12951;0;0;0;0
17.01.20;19:50:00;1;1771;14027;0;2;0;14163;0;0;0;0;3;0;9398;0;0;0;0;4;0;10411;0;0;0;0;5;0;34683;2;0;0;0;0;0;6;0;26451;2;0;0;0;0;0;7;0;25043;0;0;0;0;8;0;24396;0;0;0;0;9;0;12951;0;0;0;0
17.01.20;19:45:00;1;1497;13861;0;2;0;14163;0;0;0;0;3;0;9398;0;0;0;0;4;0;10411;0;0;0;0;5;0;34683;2;0;0;0;0;0;6;0;26451;2;0;0;0;0;0;7;0;25043;0;0;0;0;8;0;24396;0;0;0;0;9;0;12951;0;0;0;0
17.01.20;19:40:00;1;1396;13716;0;2;0;14163;0;0;0;0;3;0;9398;0;0;0;0;4;0;10411;0;0;0;0;5;0;34683;2;0;0;0;0;0;6;0;26451;2;0;0;0;0;0;7;0;25043;0;0;0;0;8;0;24396;0;0;0;0;9;0;12951;0;0;0;0
17.01.20;19:35:00;1;1409;13600;0;2;0;14163;0;0;0;0;3;0;9398;0;0;0;0;4;0;10411;0;0;0;0;5;0;34683;2;0;0;0;0;0;6;0;26451;2;0;0;0;0;0;7;0;25043;0;0;0;0;8;0;24396;0;0;0;0;9;0;12951;0;0;0;0
17.01.20;19:30:00;1;1352;13483;0;2;0;14163;0;0;0;0;3;0;9398;0;0;0;0;4;0;10411;0;0;0;0;5;0;34683;2;0;0;0;0;0;6;0;26451;2;0;0;0;0;0;7;0;25043;0;0;0;0;8;0;24396;0;0;0;0;9;0;12951;0;0;0;0
17.01.20;19:25:00;1;1123;13354;0;2;0;14163;0;0;0;0;3;0;9398;0;0;0;0;4;0;10411;0;0;0;0;5;0;34683;2;0;0;0;0;0;6;0;26451;2;0;0;0;0;0;7;0;25043;0;0;0;0;8;0;24396;0;0;0;0;9;0;12951;0;0;0;0
17.01.20;19:20:00;1;1134;13263;0;2;0;14163;0;0;0;0;3;0;9398;0;0;0;0;4;0;10411;0;0;0;0;5;0;34683;2;0;0;0;0;0;6;0;26451;2;0;0;0;0;0;7;0;25043;0;0;0;0;8;0;24396;0;0;0;0;9;0;12951;0;0;0;0
17.01.20;19:15:00;1;1212;13169;0;2;0;14163;0;0;0;0;3;0;9398;0;0;0;0;4;0;10411;0;0;0;0;5;0;34683;2;0;0;0;0;0;6;0;26451;2;0;0;0;0;0;7;0;25043;0;0;0;0;8;0;24396;0;0;0;0;9;0;12951;0;0;0;0
17.01.20;19:10:00;1;1921;13054;0;2;0;14163;0;0;0;0;3;0;9398;0;0;0;0;4;0;10411;0;0;0;0;5;0;34683;2;0;0;0;0;0;6;0;26451;2;0;0;0;0;0;7;0;25043;0;0;0;0;8;0;24396;0;0;0;0;9;0;12951;0;0;0;0
17.01.20;19:05:00;1;1552;12941;0;2;0;14163;0;0;0;0;3;0;9398;0;0;0;0;4;0;10411;0;0;0;0;5;0;34683;2;0;0;0;0;0;6;0;26451;2;0;0;0;0;0;7;0;25043;0;0;0;0;8;0;24396;0;0;0;0;9;0;12951;0;0;0;0
17.01.20;19:00:00;1;1585;12814;0;2;0;14163;0;0;0;0;3;0;9398;0;0;0;0;4;0;10411;0;0;0;0;5;0;34683;2;0;0;0;0;0;6;0;26451;2;0;0;0;0;0;7;0;25043;0;0;0;0;8;0;24396;0;0;0;0;9;0;12951;0;0;0;0
17.01.20;18:55:00;1;2168;12684;0;2;0;14163;0;0;0;0;3;0;9398;0;0;0;0;4;0;10411;0;0;0;0;5;0;34683;2;0;0;0;0;0;6;0;26451;2;0;0;0;0;0;7;0;25043;0;0;0;0;8;0;24396;0;0;0;0;9;0;12951;0;0;0;0
17.01.20;18:50:00;1;1552;12530;0;2;0;14163;0;0;0;0;3;0;9398;0;0;0;0;4;0;10411;0;0;0;0;5;0;34683;2;0;0;0;0;0;6;0;26451;2;0;0;0;0;0;7;0;25043;0;0;0;0;8;0;24396;0;0;0;0;9;0;12951;0;0;0;0
17.01.20;18:45:00;1;1528;12401;0;2;0;14163;0;0;0;0;3;0;9398;0;0;0;0;4;0;10411;0;0;0;0;5;0;34683;2;0;0;0;0;0;6;0;26451;2;0;0;0;0;0;7;0;25043;0;0;0;0;8;0;24396;0;0;0;0;9;0;12951;0;0;0;0
17.01.20;18:40:00;1;1513;12273;0;2;0;14163;0;0;0;0;3;0;9398;0;0;0;0;4;0;10411;0;0;0;0;5;0;34683;2;0;0;0;0;0;6;0;26451;2;0;0;0;0;0;7;0;25043;0;0;0;0;8;0;24396;0;0;0;0;9;0;12951;0;0;0;0
17.01.20;18:35:00;1;1830;12150;0;2;0;14163;0;0;0;0;3;0;9398;0;0;0;0;4;0;10411;0;0;0;0;5;0;34683;2;0;0;0;0;0;6;0;26451;2;0;0;0;0;0;7;0;25043;0;0;0;0;8;0;24396;0;0;0;0;9;0;12951;0;0;0;0
17.01.20;18:30:00;1;1491;12004;0;2;0;14163;0;0;0;0;3;0;9398;0;0;0;0;4;0;10411;0;0;0;0;5;0;34683;2;0;0;0;0;0;6;0;26451;2;0;0;0;0;0;7;0;25043;0;0;0;0;8;0;24396;0;0;0;0;9;0;12951;0;0;0;0
17.01.20;18:25:00;1;1483;11880;0;2;0;14163;0;0;0;0;3;0;9398;0;0;0;0;4;0;10411;0;0;0;0;5;0;34683;2;0;0;0;0;0;6;0;26451;2;0;0;0;0;0;7;0;25043;0;0;0;0;8;0;24396;0;0;0;0;9;0;12951;0;0;0;0
17.01.20;18:20:00;1;1815;11755;0;2;0;14163;0;0;0;0;3;0;9398;0;0;0;0;4;0;10411;0;0;0;0;5;0;34683;2;0;0;0;0;0;6;0;26451;2;0;0;0;0;0;7;0;25043;0;0;0;0;8;0;24396;0;0;0;0;9;0;12951;0;0;0;0
17.01.20;18:15:00;1;1459;11609;0;2;0;14163;0;0;0;0;3;0;9398;0;0;0;0;4;0;10411;0;0;0;0;5;0;34683;2;0;0;0;0;0;6;0;26451;2;0;0;0;0;0;7;0;25043;0;0;0;0;8;0;24396;0;0;0;0;9;0;12951;0;0;0;0
17.01.20;18:10:00;1;1259;11488;0;2;0;14163;0;0;0;0;3;0;9398;0;0;0;0;4;0;10411;0;0;0;0;5;0;34683;2;0;0;0;0;0;6;0;26451;2;0;0;0;0;0;7;0;25043;0;0;0;0;8;0;24396;0;0;0;0;9;0;12951;0;0;0;0
17.01.20;18:05:00;1;1215;11387;0;2;0;14163;0;0;0;0;3;0;9398;0;0;0;0;4;0;10411;0;0;0;0;5;0;34683;2;0;0;0;0;0;6;0;26451;2;0;0;0;0;0;7;0;25043;0;0;0;0;8;0;24396;0;0;0;0;9;0;12951;0;0;0;0
17.01.20;18:00:00;1;1861;11286;0;2;0;14163;0;0;0;0;3;0;9398;0;0;0;0;4;0;10411;0;0;0;0;5;0;34683;2;0;0;0;0;0;6;0;26451;2;0;0;0;0;0;7;0;25043;0;0;0;0;8;0;24396;0;0;0;0;9;0;12951;0;0;0;0
17.01.20;17:55:00;1;951;11162;0;2;0;14163;0;0;0;0;3;0;9398;0;0;0;0;4;0;10411;0;0;0;0;5;0;34683;2;0;0;0;0;0;6;0;26451;2;0;0;0;0;0;7;0;25043;0;0;0;0;8;0;24396;0;0;0;0;9;0;12951;0;0;0;0
17.01.20;17:50:00;1;827;11083;0;2;0;14163;0;0;0;0;3;0;9398;0;0;0;0;4;0;10411;0;0;0;0;5;0;34683;2;0;0;0;0;0;6;0;26451;2;0;0;0;0;0;7;0;25043;0;0;0;0;8;0;24396;0;0;0;0;9;0;12951;0;0;0;0
17.01.20;17:45:00;1;1309;11014;0;2;0;14163;0;0;0;0;3;0;9398;0;0;0;0;4;0;10411;0;0;0;0;5;0;34683;2;0;0;0;0;0;6;0;26451;2;0;0;0;0;0;7;0;25043;0;0;0;0;8;0;24396;0;0;0;0;9;0;12951;0;0;0;0
17.01.20;17:40:00;1;869;10904;0;2;0;14163;0;0;0;0;3;0;9398;0;0;0;0;4;0;10411;0;0;0;0;5;0;34683;2;0;0;0;0;0;6;0;26451;2;0;0;0;0;0;7;0;25043;0;0;0;0;8;0;24396;0;0;0;0;9;0;12951;0;0;0;0
17.01.20;17:35:00;1;1020;10831;0;2;0;14163;0;0;0;0;3;0;9398;0;0;0;0;4;0;10411;0;0;0;0;5;0;34683;2;0;0;0;0;0;6;0;26451;2;0;0;0;0;0;7;0;25043;0;0;0;0;8;0;24396;0;0;0;0;9;0;12951;0;0;0;0
17.01.20;17:30:00;1;1001;10745;0;2;0;14163;0;0;0;0;3;0;9398;0;0;0;0;4;0;10411;0;0;0;0;5;0;34683;2;0;0;0;0;0;6;0;26451;2;0;0;0;0;0;7;0;25043;0;0;0;0;8;0;24396;0;0;0;0;9;0;12951;0;0;0;0
17.01.20;17:25:00;1;2018;10670;0;2;0;14163;0;0;0;0;3;0;9398;0;0;0;0;4;0;10411;0;0;0;0;5;0;34683;2;0;0;0;0;0;6;0;26451;2;0;0;0;0;0;7;0;25043;0;0;0;0;8;0;24396;0;0;0;0;9;0;12951;0;0;0;0
17.01.20;17:20:00;1;1082;10541;0;2;0;14163;0;0;0;0;3;0;9398;0;0;0;0;4;0;10411;0;0;0;0;5;0;34683;2;0;0;0;0;0;6;0;26451;2;0;0;0;0;0;7;0;25043;0;0;0;0;8;0;24396;0;0;0;0;9;0;12951;0;0;0;0
17.01.20;17:15:00;1;727;10473;0;2;0;14163;0;0;0;0;3;0;9398;0;0;0;0;4;0;10411;0;0;0;0;5;0;34683;2;0;0;0;0;0;6;0;26451;2;0;0;0;0;0;7;0;25043;0;0;0;0;8;0;24396;0;0;0;0;9;0;12951;0;0;0;0
17.01.20;17:10:00;1;647;10415;0;2;0;14163;0;0;0;0;3;0;9398;0;0;41;2;4;0;10411;0;0;0;0;5;0;34683;2;0;0;0;0;0;6;0;26451;2;0;0;0;0;0;7;0;25043;0;0;0;0;8;0;24396;0;0;0;0;9;0;12951;0;0;0;0
17.01.20;17:05:00;1;1182;10353;0;2;0;14163;2;0;276;15;3;0;9398;6;0;304;17;4;0;10411;0;0;0;0;5;0;34683;2;0;0;0;0;0;6;0;26451;2;0;0;0;0;0;7;0;25043;0;0;0;0;8;0;24396;0;0;0;0;9;0;12951;0;0;0;0
17.01.20;17:00:00;1;797;10263;0;2;0;14163;6;0;320;16;3;0;9398;6;0;380;18;4;0;10411;2;0;75;11;5;0;34683;2;0;0;0;0;0;6;0;26451;0;0;0;0;0;0;7;0;25043;0;0;0;0;8;0;24396;0;0;0;0;9;0;12951;0;0;0;0
17.01.20;16:55:00;1;632;10195;0;2;0;14163;6;0;359;16;3;0;9398;6;1;427;18;4;0;10411;1;0;117;12;5;0;34683;1;0;1;294;293;20;6;0;26451;0;2;7;174;359;18;7;0;25043;0;0;182;12;8;0;24396;0;0;180;11;9;0;12951;0;0;228;10
17.01.20;16:50:00;1;516;10145;0;2;0;14163;6;0;383;17;3;1;9398;6;2;458;19;4;0;10411;1;0;159;12;5;0;34683;26;0;0;405;407;24;6;0;26451;23;2;8;484;246;23;7;0;25043;6;0;338;18;8;0;24396;6;0;337;18;9;0;12951;6;0;344;13
17.01.20;16:45:00;1;485;10082;0;2;0;14163;6;0;400;17;3;0;9398;6;0;487;19;4;0;10411;1;0;199;13;5;9;34683;26;0;1;410;633;25;6;0;26451;23;1;7;261;493;23;7;0;25043;6;0;396;19;8;0;24396;6;0;395;18;9;0;12951;6;0;410;13
17.01.20;16:40:00;1;524;10040;0;2;1;14163;6;7;396;18;3;3;9398;3;9;465;19;4;0;10411;1;0;209;13;5;13;34682;26;0;0;423;668;25;6;0;26451;23;1;9;481;585;24;7;0;25043;6;2;430;19;8;0;24396;6;2;428;18;9;1;12951;6;1;460;13
17.01.20;16:35:00;1;523;9999;0;2;3;14162;6;8;411;19;3;0;9397;6;5;514;20;4;0;10411;3;0;225;13;5;81;34680;4;11;17;384;609;26;6;54;26451;4;14;38;495;475;25;7;2;25043;6;7;439;20;8;0;24396;6;4;459;19;9;1;12951;6;4;476;14
17.01.20;16:30:00;1;1022;9957;0;2;25;14162;6;45;386;20;3;4;9397;6;9;521;20;4;2;10411;3;2;200;14;5;113;34673;4;34;26;384;609;26;6;75;26446;4;13;32;495;475;25;7;0;25043;6;0;501;21;8;2;24396;6;8;476;20;9;2;12951;6;4;520;14
17.01.20;16:25:00;1;2355;9886;0;2;76;14160;4;109;365;21;3;6;9397;6;11;539;21;4;26;10411;3;26;198;14;5;165;34663;4;57;55;384;609;27;6;112;26439;4;40;78;495;475;25;7;48;25043;4;82;422;21;8;39;24395;6;70;420;20;9;3;12951;6;5;547;15
17.01.20;16:20:00;1;2261;9689;0;2;179;14154;4;219;386;21;3;61;9396;6;89;475;21;4;35;10409;3;37;198;14;5;203;34649;4;87;69;384;609;27;6;144;26430;4;55;95;495;475;25;7;104;25039;4;139;442;22;8;89;24392;4;120;411;21;9;5;12951;4;10;552;15
17.01.20;16:15:00;1;2333;9498;0;2;454;14139;4;502;388;22;3;235;9392;4;274;424;22;4;90;10406;3;93;209;15;5;287;34632;4;123;121;384;609;27;6;272;26417;4;105;181;536;556;25;7;217;25030;4;249;438;22;8;140;24385;4;171;392;21;9;15;12950;6;22;511;15
17.01.20;16:10:00;1;2302;9305;0;2;580;14101;4;631;387;23;3;306;9372;4;348;426;23;4;182;10399;5;190;203;15;5;529;34607;4;224;237;421;656;27;6;477;26393;4;217;273;597;569;25;7;476;25013;4;518;481;23;8;201;24373;4;239;424;22;9;58;12949;4;84;412;16
17.01.20;16:05:00;1;2387;9087;0;2;744;14053;4;801;389;24;3;394;9347;4;442;434;23;4;232;10383;5;242;200;15;5;809;34561;4;399;343;419;695;27;6;624;26352;4;285;345;591;577;26;7;802;24973;4;868;489;23;8;288;24357;4;325;452;22;9;79;12944;4;109;488;17
17.01.20;16:00:00;1;2293;8893;0;2;869;13991;4;932;389;25;3;467;9314;4;517;435;24;4;258;10364;5;269;200;15;5;991;34491;4;492;416;413;684;28;6;764;26299;4;358;412;596;574;26;7;932;24907;4;1000;499;24;8;416;24333;4;463;437;23;9;94;12938;4;126;494;17
17.01.20;15:55:00;1;2401;8689;0;2;997;13919;4;1067;394;26;3;534;9275;4;588;442;24;4;287;10343;5;299;206;16;5;1139;34407;4;557;501;403;688;28;6;908;26234;4;445;498;603;580;26;7;1047;24828;4;1118;514;24;8;597;24298;4;647;407;23;9;113;12930;4;146;517;18
17.01.20;15:50:00;1;1735;8495;0;2;1141;13836;4;1218;397;26;3;616;9231;4;672;442;24;4;317;10319;5;330;219;16;5;1404;34311;4;703;599;419;699;28;6;1074;26157;4;535;585;600;576;26;7;1087;24743;4;1160;511;25;8;927;24249;4;982;418;24;9;128;12920;4;162;526;18
17.01.20;15:45:00;1;495;8395;0;2;1281;13741;4;1361;395;27;3;690;9179;4;748;450;25;4;345;10292;5;359;227;16;5;1632;34193;4;842;696;431;704;28;6;1240;26067;4;629;671;604;576;26;7;1415;24650;4;1500;505;25;8;1356;24171;4;1426;434;24;9;133;12910;4;160;375;19
17.01.20;15:40:00;1;359;8352;0;2;1401;13634;4;1484;390;28;3;753;9122;4;813;448;25;4;374;10263;5;389;235;16;5;1837;34057;4;953;784;425;703;29;6;1392;25962;4;692;733;605;577;26;7;1808;24533;4;1907;497;26;8;1729;24060;4;1817;429;25;9;230;12898;4;260;361;20
17.01.20;15:35:00;1;613;8323;0;2;1522;13518;4;1613;394;28;3;820;9059;4;885;453;26;4;410;10232;5;427;240;17;5;2048;33902;4;1073;881;432;705;29;6;1569;25845;4;795;840;600;581;26;7;2200;24382;4;2317;490;26;8;2008;23915;4;2105;451;25;9;552;12879;4;593;358;21
17.01.20;15:30:00;1;1032;8275;0;2;1598;13391;4;1691;390;29;3;877;8991;4;942;443;26;4;436;10198;5;454;217;17;5;2228;33730;4;1169;966;433;703;29;6;1688;25713;4;838;868;592;578;27;7;2405;24198;4;2532;487;26;8;2218;23750;4;2338;471;26;9;820;12834;4;868;363;22
17.01.20;15:25:00;1;446;8201;0;2;1712;13258;4;1811;394;30;3;965;8918;4;1030;431;27;4;473;10162;5;493;220;17;5;2435;33543;4;1292;1056;428;695;29;6;1850;25571;4;914;951;599;579;27;7;2520;23998;4;2649;488;27;8;2414;23566;4;2533;475;26;9;978;12766;4;1035;396;22
17.01.20;15:20:00;1;255;8164;0;2;1824;13116;4;1929;406;31;3;1011;8838;4;1078;440;27;4;513;10122;5;534;243;17;5;2600;33340;4;1377;1134;428;695;29;6;1983;25416;4;983;1028;601;582;27;7;2648;23789;4;2779;484;27;8;2592;23364;4;2716;482;27;9;1089;12685;4;1155;423;23
17.01.20;15:15:00;1;416;8142;0;2;2027;12963;4;2141;412;31;3;1108;8753;4;1184;454;28;4;546;10080;5;569;232;18;5;2852;33122;4;1536;1236;428;698;30;6;2170;25249;4;1090;1109;601;581;27;7;2831;23570;4;2973;485;27;8;2774;23152;4;2908;482;27;9;1299;12596;4;1377;473;24
17.01.20;15:10:00;1;850;8109;0;2;2102;12795;4;2222;411;32;3;1220;8661;4;1299;475;28;4;591;10034;5;616;227;18;5;3024;32884;4;1641;1319;430;690;30;6;2298;25068;4;1153;1161;599;585;27;7;2917;23333;4;3105;479;28;8;2915;22917;4;3057;482;27;9;1430;12486;4;1514;502;25
17.01.20;15:05:00;1;346;8054;0;2;2168;12619;4;2291;415;32;3;1313;8560;4;1400;502;29;4;621;9985;5;647;241;18;5;3204;32630;4;1738;1404;430;699;30;6;2446;24874;4;1240;1268;601;580;27;7;3068;23088;4;3221;486;28;8;3027;22674;4;3177;483;27;9;1561;12368;4;1655;520;25
17.01.20;15:00:00;1;361;8024;0;2;2225;12439;4;2352;414;33;3;1399;8450;4;1490;512;29;4;665;9933;5;692;236;19;5;3367;32362;4;1808;1480;430;696;30;6;2566;24670;4;1300;1327;602;581;27;7;3035;22833;4;3185;479;28;8;3112;22422;4;3263;485;28;9;1620;12239;4;1719;535;26
17.01.20;14:55:00;1;918;7985;0;2;2269;12253;4;2393;407;33;3;1458;8334;4;1554;523;29;4;703;9878;5;732;243;19;5;3504;32079;4;1892;1535;428;691;30;6;2673;24455;4;1373;1399;600;578;27;7;3261;22578;4;3419;485;29;8;3188;22162;4;3351;486;28;9;1586;12103;4;1686;538;26
17.01.20;14:50:00;1;1390;7895;0;2;2358;12065;4;2486;408;33;3;1518;8213;4;1613;521;30;4;754;9819;5;785;247;19;5;3711;31787;4;2006;1630;430;701;30;6;2811;24233;4;1423;1441;597;582;27;7;3386;22307;4;3559;476;29;8;3322;21897;4;3484;483;28;9;1742;11971;4;1846;536;27
17.01.20;14:45:00;1;326;7818;0;2;2441;11869;4;2578;417;34;3;1574;8086;4;1674;520;30;4;803;9756;5;836;247;19;5;3920;31477;4;2131;1725;429;692;31;6;2979;23997;4;1524;1535;602;582;27;7;3529;22025;4;3700;484;29;8;3406;21621;4;3564;475;29;9;1880;11826;4;1989;527;27
17.01.20;14:40:00;1;373;7790;0;2;2541;11665;4;2679;411;34;3;1635;7955;4;1736;522;30;4;843;9689;5;878;239;20;5;4138;31148;4;2252;1819;430;699;31;6;3139;23747;4;1596;1599;602;579;28;7;3594;21730;4;3769;487;29;8;3434;21337;4;3603;486;29;9;1822;11671;4;1925;528;27
17.01.20;14:35:00;1;797;7758;0;2;2609;11453;4;2750;406;34;3;1681;7819;4;1784;519;30;4;888;9619;5;925;244;20;5;4328;30801;4;2357;1910;432;698;31;6;3289;23484;4;1681;1679;600;581;28;7;3811;21437;4;3997;481;30;8;3723;21059;4;3900;482;29;9;2018;11518;4;2134;541;28
17.01.20;14:30:00;1;403;7701;0;2;2636;11236;4;2781;402;34;3;1708;7679;4;1812;511;30;4;932;9545;5;971;230;20;5;4462;30441;4;2419;1971;431;688;31;6;3385;23209;4;1733;1739;602;578;28;7;3860;21116;4;4052;483;30;8;3793;20747;4;3977;477;29;9;2065;11348;4;2184;532;28
17.01.20;14:25:00;1;418;7667;0;2;2590;11016;4;2733;408;34;3;1681;7537;4;1782;515;30;4;939;9468;5;978;228;21;5;4441;30068;4;2417;1953;427;689;31;6;3358;22926;4;1715;1721;592;576;28;7;3740;20798;4;3933;476;30;8;3703;20433;4;3877;473;29;9;2012;11177;4;2126;521;28
17.01.20;14:20:00;1;370;7632;0;2;2810;10799;4;2959;404;35;3;1814;7396;4;1919;513;30;4;1023;9389;5;1066;235;21;5;4842;29696;4;2605;2117;423;687;31;6;3676;22644;4;1901;1898;592;574;28;7;818;20482;4;852;93;6;8;4012;20121;4;4204;472;30;9;2191;11009;4;2317;521;29